Wind_Speed
5 3 4 10 12 11 12 15 18 18 20 23 22 19 21 17 20 15 11 17 23 28 32 32 27 27 29 27 30 31 34 30 22 25 23 24 30 26 26 28 28 27 28 28
10 6 5 7 6 9 11 14 17 20 22 24 25 25 23 22 17 15 16 21 23 21 23 23 25 25 27 30 33 33 36 26 21 25 26 28 25 25 28 28 29 31 31 29
12 8 4 6 6 11 15 17 18 21 23 25 28 27 20 18 13 14 18 19 20 20 23 26 29 30 30 33 38 47 27 27 19 17 23 23 23 25 28 29 31 33 32 31
15 10 8 10 12 14 20 19 19 21 25 27 25 21 22 12 8 13 19 20 22 24 24 25 25 33 34 33 38 41 29 27 21 16 19 25 27 30 32 33 34 31 30 27
19 14 11 12 14 17 19 19 17 18 20 22 20 19 16 9 8 18 25 24 25 27 24 26 24 26 27 30 29 23 21 23 18 16 18 23 27 31 32 34 32 31 27 27
22 17 13 13 14 17 18 15 18 19 16 19 20 18 17 15 17 22 23 25 26 23 23 24 26 26 29 32 24 25 21 22 17 17 20 25 28 30 31 33 32 30 28 29
22 20 15 15 17 19 17 23 19 20 20 18 18 19 19 18 20 20 25 23 27 23 23 25 27 28 27 29 29 27 21 23 19 22 24 29 31 31 33 32 30 27 29 30
25 21 19 18 19 19 18 21 23 21 22 20 17 20 21 21 19 20 24 24 29 32 30 28 26 29 28 27 27 26 25 24 24 26 29 29 32 33 34 32 30 29 29 31
24 23 22 22 20 21 21 23 23 19 22 23 18 18 19 20 18 22 25 27 34 37 38 31 30 28 25 23 21 22 22 23 26 28 31 31 35 33 34 32 32 29 30 28
19 24 28 25 22 21 23 22 20 20 25 27 20 21 20 21 22 25 32 32 32 39 39 31 31 30 29 22 21 21 24 27 32 29 34 33 32 33 35 28 30 30 27 28
11 15 18 23 29 27 23 21 22 24 23 26 27 23 24 24 27 29 33 31 37 39 38 37 34 33 34 24 22 27 32 34 35 33 31 31 31 33 31 25 29 27 25 25
3 4 10 16 19 22 24 25 24 24 23 23 25 26 27 27 28 29 31 35 40 38 38 38 35 34 31 25 26 30 32 32 31 28 29 31 31 28 28 27 26 24 24 25
3 4 9 16 23 25 25 23 21 20 20 22 24 25 26 29 30 29 29 34 37 37 40 39 36 29 27 26 27 31 30 30 31 30 30 30 26 26 25 22 22 24 25 26
9 11 14 17 19 20 19 16 16 19 22 21 22 21 24 27 27 26 28 35 38 40 41 42 38 29 28 29 29 30 28 30 32 29 29 25 29 25 21 22 24 26 25 28
12 15 17 13 12 13 11 13 16 19 21 22 24 23 25 26 26 26 32 39 34 35 36 40 29 26 26 28 32 31 29 31 29 27 29 26 23 20 20 23 26 26 28 29
13 18 15 13 13 14 13 14 17 19 22 22 26 25 29 34 32 32 34 34 34 39 40 37 25 21 25 29 31 28 31 29 27 27 27 21 21 19 22 26 27 27 30 31
12 10 11 11 12 13 14 15 17 19 21 22 26 26 29 30 31 32 36 36 41 45 37 31 24 23 27 29 29 28 29 26 26 26 21 20 19 20 25 27 25 29 30 31
6 7 8 7 9 11 14 16 18 20 20 24 25 27 28 31 31 38 39 35 43 41 36 20 19 23 27 30 31 27 27 26 28 23 22 20 20 23 26 25 26 29 30 32
9 10 11 13 14 16 17 20 23 22 21 26 28 29 30 31 34 36 37 37 36 34 26 25 26 28 30 32 29 30 28 27 26 23 22 21 21 26 26 24 26 29 31 33
14 15 17 18 20 22 24 26 27 28 27 29 30 31 32 34 35 37 35 38 35 27 22 26 32 32 32 32 28 28 25 27 23 21 22 20 23 25 25 24 27 29 31 32
19 19 20 23 24 26 27 29 30 31 33 35 35 35 35 34 35 36 36 35 33 30 29 31 34 34 33 32 29 25 25 24 22 21 20 21 23 25 24 25 28 30 31 32
22 23 23 25 26 28 29 31 33 34 34 37 38 38 36 35 34 34 35 33 35 33 30 31 33 32 33 31 27 25 25 23 21 20 20 20 22 25 24 26 28 30 31 32
24 24 25 26 27 30 32 34 36 37 38 39 39 39 38 37 35 34 35 37 35 36 33 31 29 31 32 28 26 26 24 21 20 20 20 20 23 26 25 28 30 31 32 34
25 26 27 28 29 32 35 37 38 40 41 40 40 41 40 38 36 37 34 33 33 29 32 27 27 29 30 28 26 23 21 20 20 20 20 21 25 26 26 29 31 33 33 35
29 29 29 31 34 35 37 39 39 38 39 40 40 40 40 39 36 37 34 33 34 31 36 32 27 28 30 28 23 22 21 20 21 20 21 24 24 26 27 30 33 34 34 35
30 33 33 35 37 37 38 39 38 40 40 40 39 39 37 37 34 34 35 34 32 39 30 39 38 31 29 26 23 22 20 20 20 19 23 25 25 28 28 30 34 36 36 36
Wind_Direction
196 286 322 3 20 19 25 22 18 16 5 11 8 4 356 0 346 357 323 339 332 329 327 325 333 331 323 316 310 309 299 290 288 301 316 325 326 326 328 326 326 325 326 326
219 255 303 350 8 9 11 12 5 10 10 6 4 356 358 0 25 19 9 350 346 342 331 327 313 313 314 309 301 306 307 294 302 316 329 333 332 326 327 325 327 329 329 327
219 242 275 318 328 333 349 346 350 355 355 354 356 348 345 352 1 11 5 1 357 335 316 319 317 318 320 310 301 310 313 304 312 342 348 337 331 331 327 329 333 332 329 326
217 241 250 287 304 315 335 342 344 341 345 349 354 1 358 21 36 350 348 344 344 342 337 331 317 322 329 338 316 329 329 329 308 346 339 338 335 334 332 332 329 330 328 330
220 235 256 274 299 320 334 341 343 354 0 357 0 4 12 42 0 347 348 343 340 344 347 346 344 339 339 344 332 349 336 336 5 356 326 331 334 332 329 328 326 329 331 331
228 237 255 279 294 309 323 338 350 3 357 355 5 20 27 8 1 1 350 342 344 356 351 345 341 341 343 341 337 348 352 345 360 342 331 335 333 330 329 325 331 332 333 333
232 230 251 270 289 307 318 327 335 342 351 349 345 348 353 346 342 339 343 341 347 350 346 343 343 341 342 341 345 350 351 347 348 337 337 338 336 334 333 330 330 335 336 336
230 229 245 260 283 302 313 320 327 335 340 344 335 336 340 340 332 337 341 347 355 356 348 347 343 340 349 346 346 342 341 338 340 338 340 336 333 335 335 331 330 335 335 334
236 233 248 256 272 289 302 314 316 324 335 339 351 339 341 347 348 337 337 341 343 345 347 341 344 342 350 349 346 337 341 345 341 339 336 336 337 333 335 333 329 332 334 334
242 237 238 250 260 278 294 306 314 330 339 336 341 341 347 345 346 343 344 332 334 339 338 333 335 341 342 344 343 344 343 345 345 336 335 337 334 332 334 334 329 334 336 338
261 255 247 248 252 268 281 296 310 316 325 330 332 342 343 341 340 337 345 343 343 342 345 339 332 337 343 340 342 345 345 346 342 339 338 334 333 332 336 335 332 337 339 341
332 246 222 234 247 263 276 290 302 311 320 327 330 340 344 339 336 336 335 335 336 341 340 338 330 332 341 340 337 342 344 347 345 344 335 332 329 330 335 332 336 341 339 343
288 254 245 247 256 268 275 285 300 312 323 328 329 335 333 334 334 328 329 332 329 329 329 329 331 325 338 337 340 341 344 346 342 341 332 333 332 336 335 339 344 344 341 344
243 266 280 284 282 280 283 298 309 317 321 326 329 328 332 332 331 334 334 327 325 325 327 327 323 316 328 333 338 338 344 345 341 338 335 333 336 333 340 346 341 340 341 346
289 288 283 300 321 323 324 314 314 321 330 331 333 328 330 338 333 323 327 331 330 326 326 325 314 303 322 328 332 340 346 342 339 338 336 335 343 343 348 342 336 339 343 347
281 288 294 314 326 328 330 331 334 336 330 326 320 314 321 322 322 325 321 325 328 318 317 323 307 304 322 327 333 339 340 338 338 336 333 339 339 346 345 339 338 342 345 346
273 287 305 307 312 319 330 334 328 324 317 313 317 315 314 319 322 323 323 320 324 323 318 323 318 321 325 328 330 331 333 336 336 333 335 341 344 342 341 339 339 342 344 344
273 287 300 318 319 327 325 321 316 315 313 310 311 310 314 319 319 319 323 320 321 323 323 320 320 328 321 327 327 328 333 334 338 338 336 343 340 338 340 340 341 343 342 343
280 290 300 312 312 314 317 313 314 318 317 311 312 316 317 319 320 317 322 325 319 317 318 317 324 326 324 323 324 327 331 331 337 334 333 336 337 337 338 341 342 343 343 343
283 293 300 305 306 311 315 317 320 316 313 311 313 317 319 319 318 317 317 318 317 319 313 319 324 322 319 318 321 325 329 330 333 329 330 331 337 338 339 340 341 344 343 343
283 287 292 298 304 309 313 314 313 313 314 315 315 317 315 316 317 314 314 318 319 312 306 307 315 317 317 314 318 320 323 329 330 327 326 331 340 339 339 337 340 341 342 344
278 284 291 298 302 301 307 308 308 309 310 310 312 313 313 313 315 312 312 316 316 311 305 305 306 310 308 309 316 319 324 329 325 322 322 329 335 336 336 335 336 338 342 344
278 286 294 297 302 303 307 307 307 308 309 310 311 312 311 310 313 311 316 315 314 311 305 299 302 306 305 309 315 318 324 324 319 318 319 323 329 333 333 331 330 335 340 341
282 289 293 297 300 303 304 304 306 307 308 310 309 308 309 311 312 311 315 314 314 318 316 293 295 304 307 306 310 316 318 311 311 312 315 320 325 330 327 326 329 332 335 339
285 289 291 298 302 303 301 302 304 305 306 306 306 307 309 310 313 313 311 311 307 309 312 292 307 309 301 298 308 313 305 303 306 310 315 317 319 327 325 327 327 329 332 336
281 284 292 299 301 300 299 301 303 305 305 305 306 307 306 307 309 307 307 308 309 311 302 289 302 301 292 297 306 305 296 297 302 308 313 314 321 325 323 325 327 329 331 333
Height
5958 5959 5959 5959 5958 5956 5955 5953 5951 5949 5947 5944 5941 5939 5936 5932 5928 5923 5919 5916 5912 5907 5902 5898 5894 5890 5887 5883 5877 5872 5866 5863 5861 5858 5854 5849 5846 5842 5837 5832 5828 5822 5818 5813
5959 5959 5959 5959 5958 5957 5955 5953 5951 5949 5946 5943 5940 5936 5933 5930 5926 5924 5921 5917 5913 5909 5902 5897 5892 5888 5885 5879 5871 5866 5862 5859 5857 5856 5853 5847 5842 5838 5834 5829 5825 5819 5814 5809
5958 5958 5959 5958 5957 5956 5955 5953 5950 5948 5945 5942 5938 5935 5931 5929 5927 5924 5921 5917 5913 5908 5902 5895 5890 5885 5883 5875 5864 5859 5851 5856 5852 5851 5849 5844 5840 5836 5831 5825 5820 5814 5810 5805
5956 5957 5958 5957 5957 5957 5955 5952 5950 5947 5944 5940 5937 5935 5930 5927 5926 5923 5920 5916 5912 5907 5901 5896 5891 5883 5876 5869 5863 5858 5855 5851 5849 5848 5846 5842 5838 5833 5827 5822 5817 5811 5806 5802
5956 5956 5956 5956 5956 5955 5954 5951 5948 5945 5943 5940 5937 5934 5930 5928 5926 5924 5920 5914 5909 5905 5899 5893 5888 5881 5875 5870 5864 5860 5854 5851 5848 5847 5842 5839 5835 5830 5823 5818 5813 5807 5802 5797
5952 5955 5955 5954 5954 5953 5952 5950 5948 5945 5942 5940 5937 5935 5932 5929 5926 5923 5919 5912 5908 5903 5896 5890 5886 5880 5874 5868 5862 5856 5853 5850 5846 5845 5841 5836 5831 5825 5819 5814 5808 5802 5797 5792
5951 5953 5953 5952 5952 5952 5950 5949 5947 5945 5942 5939 5936 5934 5931 5928 5924 5921 5917 5912 5907 5902 5895 5890 5884 5878 5872 5866 5859 5854 5852 5848 5844 5841 5837 5831 5827 5820 5815 5809 5804 5797 5793 5788
5947 5951 5951 5951 5951 5950 5949 5948 5946 5943 5940 5939 5935 5932 5929 5925 5922 5919 5915 5909 5906 5900 5895 5889 5882 5876 5870 5863 5858 5854 5850 5846 5841 5837 5832 5827 5822 5816 5811 5805 5799 5794 5789 5784
5944 5948 5948 5949 5949 5949 5947 5946 5944 5941 5939 5936 5934 5930 5927 5923 5919 5916 5911 5907 5902 5897 5890 5884 5879 5873 5868 5861 5857 5853 5847 5842 5838 5832 5827 5823 5817 5812 5806 5800 5796 5791 5785 5780
5940 5943 5944 5946 5947 5946 5945 5944 5941 5939 5936 5932 5930 5927 5924 5920 5916 5913 5908 5903 5898 5893 5887 5879 5874 5869 5863 5859 5853 5849 5845 5840 5834 5827 5823 5818 5814 5808 5801 5796 5792 5787 5781 5777
5938 5939 5942 5943 5944 5944 5943 5941 5938 5936 5935 5931 5926 5925 5921 5917 5913 5908 5904 5899 5893 5887 5882 5878 5872 5865 5860 5855 5852 5846 5840 5834 5829 5823 5819 5814 5810 5804 5798 5793 5789 5783 5778 5774
5936 5937 5939 5941 5941 5940 5939 5937 5935 5932 5931 5928 5925 5922 5918 5914 5909 5905 5900 5894 5888 5882 5877 5874 5869 5864 5858 5852 5847 5843 5837 5830 5826 5820 5816 5811 5806 5800 5795 5790 5785 5781 5776 5771
5936 5937 5938 5938 5939 5936 5934 5933 5931 5929 5927 5925 5922 5920 5914 5910 5906 5901 5896 5890 5884 5877 5870 5867 5865 5860 5854 5849 5843 5838 5833 5827 5823 5817 5812 5807 5802 5796 5791 5786 5783 5779 5774 5767
5934 5934 5934 5934 5932 5931 5930 5929 5928 5926 5924 5922 5919 5916 5911 5907 5901 5896 5891 5886 5879 5873 5868 5861 5857 5854 5849 5845 5840 5835 5829 5824 5820 5814 5809 5804 5798 5792 5788 5784 5781 5776 5771 5764
5931 5931 5929 5928 5928 5927 5926 5925 5924 5923 5921 5918 5914 5910 5907 5903 5898 5892 5887 5880 5873 5868 5862 5856 5851 5848 5844 5840 5836 5831 5825 5821 5816 5811 5805 5799 5795 5791 5786 5782 5778 5773 5767 5761
5927 5926 5926 5926 5925 5924 5923 5922 5921 5919 5916 5913 5910 5907 5903 5898 5893 5887 5881 5876 5869 5863 5857 5851 5847 5844 5839 5837 5832 5827 5823 5818 5813 5807 5802 5796 5793 5788 5783 5779 5775 5769 5763 5757
5924 5924 5925 5925 5923 5922 5921 5919 5917 5916 5913 5910 5906 5903 5898 5893 5888 5882 5877 5871 5864 5858 5850 5846 5844 5841 5837 5833 5829 5824 5820 5815 5809 5803 5798 5793 5788 5785 5780 5775 5771 5766 5759 5754
5923 5923 5923 5923 5922 5921 5919 5917 5914 5912 5909 5905 5901 5897 5893 5888 5883 5877 5872 5867 5859 5852 5847 5843 5840 5837 5834 5829 5825 5820 5815 5810 5804 5800 5795 5789 5786 5782 5776 5772 5768 5763 5757 5751
5920 5921 5920 5919 5918 5918 5915 5912 5910 5907 5905 5899 5895 5892 5887 5883 5878 5870 5866 5862 5855 5849 5844 5840 5835 5832 5830 5824 5819 5815 5810 5805 5799 5796 5792 5788 5783 5779 5774 5769 5764 5758 5753 5747
5917 5917 5917 5915 5914 5912 5910 5907 5904 5901 5898 5893 5890 5886 5881 5876 5872 5866 5861 5856 5850 5846 5841 5836 5831 5827 5824 5819 5815 5811 5805 5801 5795 5793 5790 5785 5781 5776 5771 5766 5761 5755 5749 5743
5912 5912 5912 5910 5908 5907 5904 5901 5897 5895 5893 5887 5883 5879 5875 5870 5866 5860 5854 5850 5845 5840 5837 5832 5827 5823 5819 5815 5810 5805 5800 5797 5793 5790 5786 5782 5777 5773 5768 5763 5758 5751 5745 5738
5908 5908 5907 5906 5904 5902 5899 5896 5893 5890 5885 5880 5876 5873 5868 5863 5859 5853 5848 5843 5840 5834 5830 5827 5822 5818 5814 5809 5805 5801 5797 5792 5789 5786 5782 5778 5773 5769 5764 5759 5754 5748 5741 5734
5903 5903 5902 5901 5899 5895 5892 5888 5884 5881 5878 5873 5869 5865 5861 5856 5851 5846 5842 5836 5832 5828 5825 5821 5817 5813 5809 5804 5801 5796 5791 5787 5785 5782 5778 5774 5770 5765 5760 5755 5750 5744 5737 5730
5896 5896 5895 5894 5892 5888 5885 5881 5877 5873 5869 5866 5861 5856 5851 5847 5843 5838 5834 5829 5824 5821 5817 5814 5810 5807 5803 5799 5795 5791 5786 5783 5780 5777 5773 5769 5765 5760 5756 5752 5746 5739 5733 5726
5890 5888 5887 5886 5884 5881 5877 5873 5870 5867 5862 5857 5853 5848 5843 5838 5834 5830 5826 5821 5817 5813 5809 5807 5804 5801 5798 5794 5789 5785 5782 5778 5776 5773 5770 5765 5761 5756 5751 5747 5741 5735 5728 5722
5882 5880 5879 5877 5875 5872 5868 5865 5862 5858 5854 5849 5844 5839 5834 5830 5826 5821 5817 5815 5810 5806 5802 5801 5798 5795 5792 5788 5783 5780 5777 5774 5771 5769 5765 5761 5755 5750 5746 5741 5736 5731 5724 5717